C/2020 F2 ( ATLAS )

Japanese version
Home page
Updated on October 22, 2022

---------------------------------------------------------------------

* Profile

Discovery Date March 21 and 22, 2020
Magnitude 19.3 mag and 19.3 mag
Discoverer Asteroid Terrestrial-Impact Last Alert System (ATLAS) search program, Pan-STARRS 1 telescope (Haleakala)

* Pictures

* Orbital Elements

Epoch 2022 Aug. 9.0 TT = JDT 2459800.5
T 2022 July 15.62052 TT                                 Rudenko
q   8.8170858            (2000.0)            P               Q
z  -0.0005940      Peri.   48.35313     -0.89902575     -0.34784359
 +/-0.0000013      Node   250.27484     -0.43595865     +0.76805864
e   1.0052377      Incl.  163.58550     +0.04114307     +0.53767161
From 1128 observations 2019 May 27-2022 Aug. 13, mean residual 0".4.

* Finding Charts

* Magnitudes Graph

        m1 = -6.5 + 5 log d + 20.0 log r

---------------------------------------------------------------------

The orbital elements are published on M.P.E.C. 2022-R68.
The charts are made with StellaNavigator Ver.10 (AstroArts).
The magnitudes graphs are made with Comet for Windows.

---------------------------------------------------------------------

Copyright(C) Seiichi Yoshida (comet@aerith.net). All rights reserved.